Wind_Speed
82 84 83 72 56 35 16 5 24 44 58 70 77 75 72 72 75 79 81 84 90 101 104 111 113 112 109 108 108 103 102 99 93 96 93 97 99 96 96 91 91 83 83 79 75
78 81 83 81 70 58 36 14 7 26 43 55 68 71 71 69 68 69 76 79 81 86 89 94 104 109 113 117 111 110 103 114 111 107 94 102 104 107 103 98 92 91 90 86 84
74 76 79 80 77 66 56 34 13 7 24 39 55 63 66 68 67 66 65 69 74 80 83 87 86 87 99 110 112 111 111 116 114 122 108 109 104 110 105 101 99 97 95 94 88
68 71 73 73 74 73 64 52 35 12 8 23 38 52 60 63 64 65 65 64 65 70 78 82 84 88 90 92 99 101 109 119 115 111 119 119 116 115 110 105 103 100 103 99 95
61 64 67 69 68 67 66 62 47 38 19 3 21 36 50 58 59 62 64 66 67 67 68 74 83 85 88 90 90 88 95 104 106 112 121 119 118 123 124 118 113 111 104 105 103
55 58 60 64 64 63 62 61 57 52 36 26 11 12 29 42 53 58 60 64 67 68 70 71 71 75 81 84 87 90 90 90 95 101 105 114 120 127 117 126 125 121 116 109 109
48 52 55 56 59 58 57 55 56 53 49 44 31 16 11 8 29 45 56 61 64 68 71 72 74 74 76 81 84 88 91 93 94 97 101 107 109 113 117 126 130 126 122 120 122
45 45 48 51 52 54 54 51 51 50 51 47 40 37 30 16 8 10 22 41 55 64 69 72 76 78 80 83 84 85 88 91 94 99 100 109 103 103 110 120 126 128 130 128 116
40 43 42 44 46 50 50 50 46 47 48 46 46 40 35 30 30 15 11 15 20 29 44 58 69 76 82 85 87 90 90 90 91 97 104 112 101 102 110 114 113 117 126 129 121
39 40 39 39 39 44 46 46 45 42 43 45 46 45 41 37 33 28 28 21 19 22 25 28 33 43 61 75 85 90 93 96 94 100 106 107 101 99 106 112 110 109 111 116 122
36 38 37 36 36 37 41 43 42 38 37 40 41 44 45 41 38 33 29 31 30 23 28 29 32 37 39 43 54 70 88 99 102 104 112 109 103 96 105 110 107 108 108 105 104
35 36 36 35 34 34 34 38 39 37 35 34 39 40 45 44 41 38 34 33 33 33 34 28 38 37 39 45 52 62 73 85 97 107 116 112 111 104 106 108 107 107 108 106 107
31 33 34 34 33 32 32 32 36 37 34 33 34 39 38 45 42 44 42 38 38 40 38 40 34 38 40 44 51 58 69 77 82 93 106 114 118 112 112 111 110 106 106 106 108
33 31 33 34 33 31 30 29 32 35 35 32 33 37 36 40 45 44 46 43 42 45 45 50 43 38 42 47 54 54 63 68 70 77 84 100 107 111 117 112 110 109 111 111 111
37 35 35 33 31 31 31 29 29 31 34 35 33 36 36 40 44 45 46 47 46 49 50 54 53 45 43 51 55 47 53 59 60 66 72 80 92 94 109 112 113 113 113 113 116
41 40 37 36 32 30 31 31 31 31 30 32 34 38 38 39 43 47 47 52 52 53 53 55 59 53 47 54 53 44 41 45 46 53 55 67 86 80 91 100 107 112 116 117 113
45 41 39 36 31 32 31 31 31 32 31 32 34 37 38 39 44 51 50 51 52 53 56 58 62 60 55 55 58 42 35 38 43 47 42 61 72 68 81 89 95 101 106 111 111
51 44 38 36 33 32 31 32 32 32 34 34 36 38 41 40 43 51 53 55 56 58 62 64 64 67 61 64 59 46 37 39 39 48 48 52 49 61 75 80 80 84 95 100 100
48 48 40 37 35 32 31 33 32 33 34 36 37 40 44 45 43 54 58 60 62 64 70 69 70 75 62 67 58 45 43 38 36 45 47 43 47 49 57 65 76 77 83 91 95
46 46 43 40 34 34 32 33 34 34 35 38 41 42 44 49 49 56 60 63 67 69 74 74 73 79 67 69 56 42 43 41 39 38 38 42 51 55 56 56 64 70 75 80 88
46 46 46 45 41 37 36 34 37 35 36 37 40 43 43 48 49 56 60 64 65 67 71 74 75 81 68 68 52 42 43 40 38 36 37 39 45 54 52 53 55 64 70 72 80
49 46 48 49 45 42 39 38 40 39 38 37 38 43 44 48 52 57 59 65 65 68 71 74 78 82 68 65 47 41 41 39 34 36 36 35 39 48 53 53 53 60 65 69 73
53 48 51 51 50 46 43 42 42 41 40 41 40 43 45 49 51 57 59 66 67 69 72 75 80 81 72 65 46 39 37 32 32 34 35 36 40 52 46 46 51 57 61 65 66
53 53 50 52 52 50 48 47 46 42 42 41 40 44 46 50 53 56 59 66 68 70 72 78 83 81 73 66 50 40 33 28 29 31 29 30 35 41 38 37 48 54 58 62 62
47 50 54 52 55 52 49 48 48 47 44 41 41 44 46 49 53 56 61 66 69 72 74 80 84 81 73 66 49 37 31 26 26 28 26 31 33 34 38 40 43 49 52 54 57
45 45 50 55 56 55 50 47 48 47 44 44 43 46 47 48 51 56 62 68 69 70 74 80 86 79 74 65 50 36 29 25 21 20 24 29 26 27 31 37 36 38 45 49 51
46 44 46 53 54 57 53 47 49 48 48 45 47 48 47 49 52 56 63 69 68 71 74 79 88 75 73 62 49 38 28 20 15 11 13 18 21 20 20 23 28 31 33 36 44
Wind_Direction
19 24 27 30 32 29 20 233 216 214 216 216 219 223 225 227 229 231 232 235 237 237 238 239 240 238 239 235 234 235 233 235 235 236 236 239 242 244 240 240 244 245 242 242 240
21 24 28 30 35 37 36 38 176 204 213 217 218 222 225 228 229 231 232 233 235 238 237 237 238 238 240 242 237 236 239 239 238 231 231 238 240 242 244 244 242 244 245 240 243
19 24 27 32 34 39 41 42 46 202 214 219 220 222 225 228 230 233 235 236 236 238 239 240 241 242 240 241 243 240 237 237 242 238 237 238 237 240 242 242 244 244 242 244 242
17 20 25 30 36 39 42 44 46 48 226 228 227 227 228 230 231 234 237 238 239 239 240 240 241 242 243 242 242 243 242 240 245 245 244 246 248 250 244 240 240 242 244 245 245
14 18 20 27 32 36 41 43 46 48 48 286 239 236 236 235 235 237 238 240 241 241 242 242 241 241 243 243 243 242 242 242 244 244 246 246 247 251 250 250 240 239 242 244 247
14 14 19 18 25 33 38 41 44 47 49 52 45 254 248 245 243 242 242 243 244 244 245 245 245 245 245 246 247 245 245 245 244 244 244 245 246 249 251 251 251 247 244 241 242
11 13 12 14 16 23 29 35 40 41 45 47 46 42 38 281 255 250 248 247 248 248 248 247 247 248 248 248 247 247 245 245 245 244 245 244 243 247 251 250 249 250 251 252 250
6 10 10 10 11 15 19 26 33 36 37 38 40 43 41 26 351 301 262 255 253 251 251 250 249 249 248 248 249 247 246 245 246 245 245 246 242 244 247 250 250 251 251 252 255
4 5 8 7 7 7 11 17 22 26 29 30 33 31 29 28 30 18 299 285 276 265 259 254 253 253 251 249 249 249 247 245 246 247 246 246 239 242 244 248 251 252 251 250 251
359 1 3 4 4 2 2 7 12 19 20 22 24 23 25 20 18 18 15 359 294 273 267 263 261 258 256 254 252 252 251 247 245 249 247 248 243 244 247 248 250 252 253 251 249
353 353 356 358 2 1 358 359 1 6 12 11 12 16 14 15 12 11 10 2 2 338 280 270 261 258 262 261 257 255 251 250 246 245 248 247 246 243 246 248 248 250 251 251 250
346 350 351 354 353 356 354 353 353 0 1 360 1 1 6 6 6 6 2 359 356 355 352 292 273 276 274 268 267 260 256 252 247 246 247 246 245 241 241 245 247 248 249 250 250
338 341 346 346 348 352 352 348 347 348 356 356 352 356 354 1 1 359 357 355 353 354 349 338 298 284 285 286 290 273 262 256 252 248 246 246 244 241 241 241 244 245 247 248 248
331 333 337 338 336 342 345 346 346 343 345 349 346 347 350 352 357 355 352 349 349 348 350 339 329 299 296 300 296 278 267 261 257 251 248 248 246 244 243 240 241 244 246 247 248
320 324 328 331 334 333 338 341 341 344 339 337 342 344 342 347 345 350 349 350 348 347 347 337 335 319 309 307 310 297 274 265 257 250 246 247 249 241 243 242 240 239 240 243 245
311 314 319 325 328 327 326 333 336 338 342 335 335 341 341 337 339 345 345 344 347 348 343 339 335 324 315 318 319 299 273 268 260 256 249 244 247 243 242 242 241 240 241 243 245
308 308 311 315 318 321 320 321 327 331 334 337 335 334 336 334 331 341 341 338 340 344 342 342 338 328 323 331 323 301 278 269 268 260 248 244 243 244 245 243 240 240 242 244 244
299 303 304 308 309 311 315 315 319 323 328 334 333 331 333 338 329 335 340 339 340 339 340 343 342 336 330 331 324 306 286 269 264 263 257 252 252 245 241 245 243 240 241 241 242
293 293 297 299 302 301 306 308 315 319 321 326 330 327 328 334 333 335 341 340 338 337 339 342 343 339 335 332 322 305 291 287 274 264 258 256 252 253 250 245 246 244 239 238 240
286 288 287 290 291 296 297 302 305 312 316 319 323 326 325 327 330 334 338 340 337 338 340 341 342 339 334 332 322 305 294 289 279 266 255 249 250 243 243 241 241 243 243 239 238
280 282 284 285 287 289 292 296 300 306 310 315 316 318 321 326 327 330 333 339 337 336 337 338 339 338 333 334 321 306 298 290 282 269 258 246 243 247 244 245 243 242 243 239 240
276 274 275 279 282 285 289 292 296 301 305 306 311 313 316 321 324 330 332 336 335 333 336 337 339 338 333 334 324 307 300 294 283 272 267 260 249 245 243 239 242 240 241 243 240
276 269 268 271 275 279 282 285 290 296 301 302 310 312 315 319 321 327 329 331 334 332 333 335 338 338 334 336 325 310 300 295 283 271 264 258 248 248 246 240 245 246 245 247 245
282 271 264 264 268 273 278 283 287 290 295 298 305 308 313 316 320 323 328 330 332 331 331 333 337 338 334 336 328 318 308 294 275 267 268 256 249 254 258 250 247 250 253 255 256
286 272 265 256 261 265 272 279 284 289 290 295 300 305 311 314 316 322 326 327 331 330 331 334 337 337 335 336 330 324 317 303 283 273 262 258 249 250 254 252 241 250 256 260 262
294 274 264 258 253 259 265 272 278 282 285 292 297 303 308 311 314 318 323 325 328 330 331 334 336 336 337 336 332 330 323 304 293 285 279 275 275 266 264 268 273 263 263 262 262
300 285 271 259 253 251 256 262 269 276 281 287 293 299 304 308 312 317 320 324 326 329 330 333 335 335 337 336 333 331 328 318 318 304 298 296 301 285 274 270 269 268 264 263 267
Height
10693 10674 10654 10634 10618 10608 10604 10605 10611 10623 10640 10656 10672 10685 10695 10705 10713 10720 10730 10736 10743 10750 10760 10764 10769 10779 10787 10791 10801 10815 10834 10837 10835 10835 10839 10828 10831 10839 10845 10854 10851 10875 10879 10885 10892
10698 10682 10664 10647 10630 10619 10613 10613 10616 10626 10639 10652 10666 10678 10689 10696 10703 10713 10718 10727 10734 10738 10744 10749 10752 10764 10769 10767 10785 10798 10810 10812 10806 10817 10821 10816 10820 10815 10827 10841 10843 10855 10863 10875 10879
10705 10692 10677 10664 10649 10636 10630 10626 10628 10635 10644 10653 10664 10674 10682 10689 10696 10702 10707 10713 10721 10726 10729 10733 10737 10744 10752 10754 10763 10777 10793 10785 10788 10795 10801 10802 10806 10795 10813 10829 10832 10837 10837 10852 10865
10712 10701 10690 10679 10669 10656 10647 10644 10641 10643 10648 10655 10662 10670 10675 10682 10690 10695 10700 10704 10708 10711 10715 10720 10726 10729 10734 10741 10743 10759 10765 10766 10766 10770 10778 10784 10770 10781 10790 10813 10813 10813 10817 10830 10847
10719 10709 10700 10691 10683 10674 10666 10660 10656 10654 10654 10657 10661 10667 10671 10677 10684 10686 10691 10695 10698 10701 10704 10707 10710 10717 10720 10726 10728 10739 10736 10746 10751 10755 10759 10757 10761 10758 10778 10781 10789 10797 10801 10811 10823
10724 10715 10708 10700 10693 10687 10681 10674 10670 10666 10663 10662 10662 10664 10667 10673 10676 10679 10682 10683 10685 10688 10691 10693 10698 10701 10701 10701 10703 10708 10721 10728 10735 10737 10737 10737 10742 10734 10755 10754 10759 10768 10779 10786 10797
10727 10720 10713 10706 10700 10695 10690 10685 10680 10675 10673 10670 10667 10665 10666 10666 10667 10669 10671 10672 10674 10675 10677 10681 10682 10685 10687 10686 10693 10696 10705 10710 10713 10711 10712 10703 10717 10732 10723 10717 10724 10737 10753 10757 10771
10729 10723 10717 10711 10705 10699 10695 10691 10686 10682 10678 10675 10672 10669 10666 10664 10665 10662 10662 10661 10661 10661 10662 10664 10666 10668 10671 10671 10672 10678 10684 10689 10686 10686 10687 10668 10706 10716 10698 10682 10699 10716 10733 10740 10747
10730 10724 10719 10714 10708 10704 10698 10693 10689 10685 10681 10678 10675 10670 10667 10664 10661 10659 10658 10656 10653 10651 10650 10650 10650 10649 10650 10650 10652 10653 10660 10664 10664 10660 10654 10645 10689 10691 10677 10668 10679 10690 10704 10724 10730
10730 10725 10719 10714 10710 10705 10700 10696 10691 10686 10681 10677 10675 10671 10667 10662 10659 10656 10652 10649 10647 10645 10642 10639 10636 10631 10630 10635 10633 10630 10639 10640 10649 10634 10623 10627 10663 10673 10662 10656 10667 10671 10679 10699 10714
10728 10723 10718 10714 10710 10705 10701 10696 10691 10687 10681 10676 10672 10669 10664 10661 10657 10653 10649 10644 10640 10636 10632 10629 10624 10620 10620 10617 10612 10609 10606 10612 10618 10609 10595 10611 10629 10656 10641 10632 10650 10653 10657 10673 10684
10724 10721 10717 10712 10708 10703 10699 10693 10690 10685 10680 10675 10671 10665 10661 10658 10654 10650 10645 10640 10635 10630 10624 10619 10611 10609 10605 10600 10596 10590 10584 10584 10586 10581 10573 10588 10602 10623 10621 10620 10629 10634 10639 10649 10655
10721 10716 10713 10709 10705 10700 10696 10691 10685 10681 10677 10672 10667 10662 10658 10653 10649 10642 10638 10634 10628 10621 10615 10608 10602 10596 10591 10584 10574 10567 10559 10555 10555 10554 10551 10557 10562 10587 10595 10603 10606 10619 10620 10621 10623
10716 10711 10707 10704 10700 10696 10692 10687 10682 10676 10672 10668 10663 10658 10654 10648 10642 10637 10630 10624 10618 10609 10602 10594 10588 10582 10574 10564 10550 10545 10528 10528 10528 10530 10532 10525 10541 10561 10563 10578 10590 10596 10592 10595 10599
10709 10706 10701 10697 10693 10690 10687 10682 10678 10672 10666 10659 10656 10651 10644 10642 10636 10630 10626 10618 10609 10599 10592 10579 10572 10563 10556 10545 10528 10519 10507 10504 10505 10502 10507 10512 10504 10537 10529 10547 10559 10559 10560 10563 10567
10701 10697 10693 10690 10687 10683 10678 10675 10671 10667 10662 10654 10648 10643 10637 10632 10628 10623 10617 10607 10597 10587 10580 10570 10557 10547 10541 10527 10510 10499 10489 10486 10485 10483 10492 10491 10477 10504 10509 10517 10521 10532 10538 10548 10563
10693 10688 10684 10681 10678 10675 10670 10667 10663 10659 10656 10650 10643 10637 10631 10625 10617 10612 10605 10600 10591 10583 10574 10563 10547 10529 10518 10508 10488 10480 10475 10473 10471 10468 10475 10459 10462 10489 10483 10484 10496 10512 10522 10530 10543
10680 10679 10674 10671 10667 10665 10661 10658 10655 10650 10644 10641 10636 10629 10623 10618 10609 10603 10595 10586 10575 10568 10561 10550 10536 10515 10499 10486 10475 10462 10459 10456 10458 10452 10457 10453 10460 10463 10459 10463 10474 10491 10496 10506 10518
10666 10667 10663 10660 10657 10654 10651 10647 10643 10639 10634 10629 10625 10618 10611 10605 10600 10588 10579 10568 10560 10551 10539 10528 10515 10498 10487 10473 10459 10449 10442 10440 10440 10438 10435 10441 10445 10445 10446 10456 10451 10463 10472 10484 10491
10652 10650 10651 10648 10646 10642 10640 10636 10633 10630 10624 10618 10612 10608 10600 10592 10584 10577 10567 10556 10542 10531 10519 10508 10500 10484 10474 10463 10444 10433 10426 10424 10423 10423 10424 10425 10423 10425 10428 10434 10435 10440 10448 10460 10466
10640 10636 10634 10633 10634 10631 10628 10626 10622 10620 10615 10608 10603 10597 10590 10583 10576 10568 10558 10548 10538 10526 10514 10502 10489 10476 10463 10450 10432 10420 10412 10409 10406 10406 10407 10410 10408 10406 10415 10420 10424 10423 10428 10436 10442
10623 10625 10622 10617 10618 10617 10615 10612 10610 10607 10605 10601 10595 10588 10582 10575 10567 10560 10550 10539 10530 10520 10507 10494 10480 10465 10451 10436 10421 10409 10400 10395 10393 10392 10393 10396 10397 10395 10394 10402 10406 10407 10411 10417 10425
10604 10608 10605 10605 10604 10603 10602 10600 10598 10596 10592 10586 10583 10578 10572 10565 10559 10549 10541 10531 10521 10509 10498 10487 10473 10456 10435 10423 10409 10399 10390 10385 10382 10380 10381 10382 10383 10374 10385 10395 10397 10396 10398 10401 10408
10584 10586 10587 10589 10589 10588 10588 10586 10586 10586 10581 10576 10572 10567 10561 10554 10549 10542 10532 10522 10511 10501 10488 10475 10460 10443 10425 10410 10395 10386 10379 10376 10372 10369 10373 10371 10369 10372 10381 10388 10387 10386 10387 10390 10394
10569 10567 10567 10571 10572 10573 10576 10574 10572 10571 10568 10566 10562 10557 10552 10545 10537 10530 10522 10513 10503 10489 10477 10463 10447 10431 10416 10399 10386 10378 10371 10367 10364 10362 10363 10359 10363 10365 10365 10368 10374 10374 10377 10380 10382
10553 10551 10551 10552 10557 10558 10561 10561 10559 10557 10556 10554 10551 10545 10542 10537 10530 10522 10514 10505 10495 10484 10468 10453 10437 10421 10405 10389 10376 10370 10365 10360 10357 10357 10356 10353 10354 10358 10360 10362 10367 10373 10370 10367 10368
10539 10536 10534 10533 10539 10544 10546 10547 10544 10544 10542 10543 10539 10535 10532 10527 10521 10514 10505 10496 10485 10473 10461 10448 10432 10413 10400 10381 10369 10363 10359 10355 10352 10349 10347 10346 10348 10351 10355 10356 10357 10358 10360 10364 10363